Fremont, MI

4:14 PM EST on December 09, 2019 (GMT -0500)
Fremont

Weather History for KFFX - October, 2019

Change the Weather History Date:

Saturday, October 12, 2019

  Actual Average (KMKG) Record (KMKG)
Temperature  
Mean Temperature 44 °F -  
Max Temperature 48 °F 60 °F 80 °F (2008)
Min Temperature 40 °F 41 °F 27 °F (1993)
Degree Days  
Heating Degree Days 21    
Moisture  
Dew Point 26 °F    
Average Humidity 52    
Maximum Humidity 95    
Minimum Humidity 37    
Precipitation  
Precipitation 0.00 in - - ()
Sea Level Pressure  
Sea Level Pressure 29.88 in    
Wind  
Wind Speed 10 mph ()    
Max Wind Speed 24 mph    
Max Gust Speed 36 mph    
Visibility 9.8 miles    
Events Rain    
Averages and records for this station are not official NWS values.
T = Trace of Precipitation, MM = Missing Value Source: Averaged Metar Reports

Daily Weather History Graph

Daily Weather History Graph

Search for Another Location

Airport or City:

Astronomy

Oct. 12, 2019 Rise Set
Actual Time 7:54 AM EDT 7:06 PM EDT
Civil Twilight 7:25 AM EDT 7:34 PM EDT
Nautical Twilight 6:52 AM EDT 8:07 PM EDT
Astronomical Twilight 6:19 AM EDT 8:40 PM EDT
Moon 7:05 PM EDT (10/12) 6:26 AM EDT (10/12)
Length of Visible Light 12h 09m
Length of Day
11h 12m
Waxing Gibbous, 99% of the Moon is Illuminated
Oct 12
Waxing Gibbous
Oct 13
Full
Oct 21
Last Quarter
Oct 27
New
Nov 4
First Quarter

Hourly Weather History & Observations

Time (EDT) Temp. Windchill Dew Point Humidity Pressure Visibility Wind Dir Wind Speed Gust Speed Precip Events Conditions
12:15 AM 41.9 °F 37.5 °F 32.5 °F 69% 29.94 in 10.0 mi West 6.9 mph - N/A   Overcast
12:16 AM 41.9 °F 38.2 °F 32.4 °F 69% 29.94 in 10.0 mi West 5.8 mph - N/A   Overcast
12:35 AM 41.5 °F 37.8 °F 29.5 °F 62% 29.94 in 10.0 mi West 5.8 mph - N/A   Overcast
12:36 AM 41.5 °F 37.8 °F 29.7 °F 63% 29.94 in 10.0 mi West 5.8 mph - N/A   Overcast
12:59 AM 41.2 °F 37.3 °F 29.1 °F 62% 29.93 in 10.0 mi WSW 5.8 mph - N/A   Overcast
1:17 AM 41.0 °F 38.0 °F 30.4 °F 66% 29.93 in 10.0 mi WSW 4.6 mph - N/A   Overcast
1:35 AM 41.2 °F 35.5 °F 28.2 °F 60% 29.93 in 10.0 mi WSW 9.2 mph - N/A   Overcast
1:36 AM 41.2 °F 35.5 °F 28.2 °F 60% 29.93 in 10.0 mi WSW 9.2 mph - N/A   Overcast
1:55 AM 41.0 °F 33.5 °F 25.7 °F 55% 29.93 in 10.0 mi WSW 13.8 mph 18.4 mph N/A   Overcast
1:56 AM 41.0 °F 33.9 °F 25.5 °F 54% 29.93 in 10.0 mi WSW 12.7 mph 17.3 mph N/A   Overcast
2:15 AM 41.0 °F 34.7 °F 25.2 °F 53% 29.93 in 10.0 mi West 10.4 mph 20.7 mph N/A   Overcast
2:20 AM 40.8 °F 35.0 °F 25.3 °F 54% 29.93 in 10.0 mi West 9.2 mph 18.4 mph N/A   Overcast
2:38 AM 40.6 °F 36.0 °F 25.0 °F 54% 29.93 in 10.0 mi West 6.9 mph - N/A   Overcast
2:56 AM 40.5 °F 37.3 °F 25.7 °F 56% 29.93 in 10.0 mi West 4.6 mph - N/A   Overcast
3:15 AM 40.5 °F 37.3 °F 27.5 °F 60% 29.93 in 10.0 mi WSW 4.6 mph - N/A   Overcast
3:35 AM 41.0 °F 36.4 °F 27.9 °F 60% 29.92 in 10.0 mi SW 6.9 mph - N/A   Overcast
3:36 AM 41.0 °F 36.4 °F 27.9 °F 60% 29.92 in 10.0 mi SW 6.9 mph - N/A   Overcast
3:59 AM 41.2 °F 36.6 °F 25.9 °F 55% 29.92 in 10.0 mi West 6.9 mph 10.4 mph N/A   Overcast
4:17 AM 41.0 °F 35.2 °F 24.8 °F 53% 29.92 in 10.0 mi WSW 9.2 mph - N/A   Overcast
4:35 AM 41.0 °F 36.4 °F 23.9 °F 51% 29.92 in 10.0 mi WSW 6.9 mph - N/A   Overcast
4:55 AM 40.6 °F 36.0 °F 23.9 °F 51% 29.92 in 10.0 mi WSW 6.9 mph - N/A   Overcast
5:15 AM 40.5 °F 35.8 °F 25.7 °F 56% 29.91 in 10.0 mi SW 6.9 mph - N/A   Overcast
5:20 AM 40.5 °F 36.5 °F 25.7 °F 56% 29.91 in 10.0 mi WSW 5.8 mph - N/A   Overcast
5:38 AM 40.5 °F 35.1 °F 25.0 °F 54% 29.91 in 10.0 mi SW 8.1 mph - N/A   Overcast
5:56 AM 40.6 °F 36.0 °F 25.0 °F 54% 29.92 in 10.0 mi WSW 6.9 mph - N/A   Overcast
6:15 AM 40.6 °F 34.8 °F 25.0 °F 54% 29.91 in 10.0 mi SW 9.2 mph - N/A   Overcast
6:35 AM 40.8 °F 34.5 °F 24.3 °F 52% 29.92 in 10.0 mi WSW 10.4 mph 17.3 mph N/A   Overcast
6:59 AM 40.6 °F 33.4 °F 24.1 °F 52% 29.92 in 10.0 mi WSW 12.7 mph 18.4 mph N/A   Overcast
7:17 AM 40.6 °F 33.0 °F 23.5 °F 51% 29.93 in 10.0 mi SW 13.8 mph 19.6 mph N/A   Overcast
7:35 AM 40.6 °F 34.3 °F 23.9 °F 51% 29.93 in 10.0 mi WSW 10.4 mph 16.1 mph N/A   Overcast
7:55 AM 40.8 °F 34.5 °F 23.9 °F 51% 29.93 in 10.0 mi WSW 10.4 mph - N/A   Overcast
7:56 AM 40.8 °F 35.0 °F 24.1 °F 51% 29.93 in 10.0 mi WSW 9.2 mph - N/A   Overcast
8:15 AM 41.0 °F 35.2 °F 24.3 °F 51% 29.93 in 10.0 mi WSW 9.2 mph - N/A   Overcast
8:19 AM 40.6 °F 35.4 °F 24.6 °F 53% 29.93 in 10.0 mi WSW 8.1 mph - N/A   Overcast
8:38 AM 41.0 °F 35.2 °F 25.3 °F 54% 29.94 in 10.0 mi SW 9.2 mph 17.3 mph N/A   Overcast
8:56 AM 41.0 °F 34.7 °F 25.0 °F 53% 29.93 in 10.0 mi SW 10.4 mph - N/A   Overcast
9:15 AM 41.0 °F 33.9 °F 25.0 °F 53% 29.94 in 10.0 mi WSW 12.7 mph 19.6 mph N/A   Overcast
9:35 AM 41.5 °F 35.0 °F 24.8 °F 51% 29.93 in 10.0 mi SW 11.5 mph 17.3 mph N/A   Overcast
9:59 AM 42.1 °F 35.7 °F 23.5 °F 48% 29.94 in 10.0 mi WSW 11.5 mph 17.3 mph N/A   Overcast
10:35 AM 43.7 °F 36.9 °F 24.3 °F 46% 29.94 in 10.0 mi WSW 13.8 mph 19.6 mph N/A   Overcast
10:36 AM 43.7 °F 36.3 °F 23.7 °F 45% 29.94 in 10.0 mi SW 16.1 mph 19.6 mph N/A   Overcast
10:55 AM 43.5 °F 35.8 °F 22.5 °F 43% 29.93 in 10.0 mi SW 17.3 mph 27.6 mph N/A   Overcast
11:15 AM 43.7 °F 35.2 °F 23.4 °F 45% 29.93 in 10.0 mi SW 20.7 mph 28.8 mph N/A   Overcast
11:56 AM 43.5 °F 35.2 °F 23.5 °F 45% 29.93 in 10.0 mi SW 19.6 mph 29.9 mph N/A   Overcast
12:15 PM 45.7 °F 37.8 °F 22.3 °F 40% 29.93 in 10.0 mi SSW 20.7 mph 27.6 mph N/A   Overcast
12:16 PM 45.7 °F 37.8 °F 21.9 °F 39% 29.93 in 10.0 mi SW 20.7 mph 27.6 mph N/A   Overcast
12:35 PM 44.1 °F 36.2 °F 22.6 °F 43% 29.93 in 10.0 mi SW 18.4 mph 27.6 mph N/A   Overcast
12:59 PM 44.6 °F 38.1 °F 23.2 °F 43% 29.93 in 10.0 mi SW 13.8 mph 24.2 mph N/A   Overcast
1:17 PM 45.9 °F 37.6 °F 21.9 °F 39% 29.92 in 10.0 mi SW 23.0 mph 32.2 mph N/A   Overcast
1:35 PM 45.9 °F 37.8 °F 23.0 °F 41% 29.91 in 10.0 mi SW 21.9 mph 28.8 mph N/A   Overcast
1:36 PM 46.0 °F 37.8 °F 22.6 °F 40% 29.91 in 10.0 mi SW 23.0 mph 29.9 mph N/A   Overcast
1:55 PM 45.7 °F 38.3 °F 23.9 °F 42% 29.90 in 10.0 mi SW 18.4 mph 34.5 mph N/A   Overcast
1:56 PM 45.5 °F 37.1 °F 24.1 °F 43% 29.90 in 10.0 mi SW 23.0 mph 34.5 mph N/A   Overcast
2:15 PM 46.9 °F - 23.0 °F 39% 29.90 in 10.0 mi SW 21.9 mph 27.6 mph N/A   Overcast
2:20 PM 46.9 °F - 22.3 °F 38% 29.89 in 10.0 mi SW 18.4 mph 27.6 mph N/A   Overcast
2:38 PM 46.8 °F - 23.5 °F 40% 29.88 in 10.0 mi SW 23.0 mph 29.9 mph N/A   Overcast
2:56 PM 46.8 °F - 23.0 °F 39% 29.88 in 10.0 mi SW 20.7 mph 32.2 mph N/A   Overcast
3:15 PM 46.8 °F - 23.7 °F 40% 29.86 in 10.0 mi SSW 24.2 mph 32.2 mph N/A   Overcast
3:35 PM 46.8 °F - 23.2 °F 40% 29.85 in 10.0 mi SW 23.0 mph 31.1 mph N/A   Overcast
3:59 PM 46.9 °F - 23.2 °F 39% 29.85 in 10.0 mi SSW 20.7 mph 35.7 mph N/A   Mostly Cloudy
4:17 PM 47.7 °F - 23.5 °F 39% 29.85 in 10.0 mi SW 24.2 mph 33.4 mph N/A   Overcast
4:35 PM 48.2 °F - 24.8 °F 40% 29.85 in 10.0 mi SSW 23.0 mph 29.9 mph N/A   Mostly Cloudy
4:55 PM 47.8 °F - 23.2 °F 38% 29.85 in 10.0 mi SSW 21.9 mph 32.2 mph N/A   Mostly Cloudy
5:15 PM 47.8 °F - 22.8 °F 37% 29.84 in 10.0 mi SW 16.1 mph 35.7 mph N/A   Scattered Clouds
5:20 PM 47.8 °F - 23.4 °F 38% 29.84 in 10.0 mi SW 23.0 mph 35.7 mph N/A   Scattered Clouds
5:38 PM 47.8 °F - 23.7 °F 39% 29.84 in 10.0 mi SW 17.3 mph 28.8 mph N/A   Scattered Clouds
5:56 PM 47.7 °F - 23.9 °F 39% 29.83 in 10.0 mi SSW 16.1 mph 25.3 mph N/A   Clear
6:15 PM 47.7 °F - 23.5 °F 39% 29.83 in 10.0 mi SSW 13.8 mph 23.0 mph N/A   Clear
6:35 PM 47.7 °F - 24.4 °F 40% 29.82 in 10.0 mi SSW 11.5 mph 18.4 mph N/A   Scattered Clouds
6:59 PM 47.8 °F - 24.1 °F 39% 29.82 in 10.0 mi SSW 10.4 mph - N/A   Mostly Cloudy
7:17 PM 47.8 °F - 24.1 °F 39% 29.82 in 10.0 mi South 6.9 mph 18.4 mph N/A   Mostly Cloudy
7:36 PM 48.2 °F - 24.4 °F 39% 29.80 in 10.0 mi South 9.2 mph - N/A   Overcast
7:55 PM 48.4 °F - 24.4 °F 39% 29.80 in 10.0 mi South 10.4 mph 17.3 mph N/A   Overcast
7:56 PM 48.6 °F - 24.3 °F 39% 29.80 in 10.0 mi South 9.2 mph 17.3 mph N/A   Overcast
8:15 PM 48.0 °F - 25.3 °F 41% 29.80 in 10.0 mi South 9.2 mph 18.4 mph N/A   Overcast
8:38 PM 47.7 °F - 23.4 °F 38% 29.79 in 10.0 mi South 12.7 mph 19.6 mph N/A   Overcast
8:56 PM 47.8 °F - 22.3 °F 37% 29.78 in 10.0 mi South 9.2 mph 18.4 mph N/A   Overcast
9:15 PM 47.7 °F - 22.6 °F 37% 29.79 in 10.0 mi South 11.5 mph 24.2 mph N/A   Light Drizzle
9:16 PM 47.7 °F - 22.8 °F 38% 29.79 in 10.0 mi South 10.4 mph 24.2 mph N/A   Light Drizzle
9:35 PM 46.2 °F 41.2 °F 27.7 °F 48% 29.80 in 10.0 mi South 10.4 mph 20.7 mph N/A Rain Light Rain
9:36 PM 46.0 °F 41.0 °F 27.9 °F 49% 29.80 in 10.0 mi South 10.4 mph - N/A Rain Light Rain
9:58 PM 44.6 °F - 30.6 °F 58% 29.81 in 7.0 mi Calm Calm - N/A Rain Rain
10:17 PM 44.4 °F 41.2 °F 32.4 °F 63% 29.81 in 10.0 mi South 5.8 mph - N/A Rain Rain
10:35 PM 44.8 °F - 36.1 °F 72% 29.81 in 5.0 mi Calm Calm - N/A Rain Rain
10:36 PM 44.8 °F 43.3 °F 36.3 °F 72% 29.81 in 5.0 mi NW 3.5 mph - N/A Rain Heavy Rain
10:55 PM 43.7 °F - 41.7 °F 93% 29.81 in 7.0 mi Calm Calm - N/A Rain Light Rain
10:56 PM 43.7 °F - 41.7 °F 93% 29.81 in 7.0 mi Calm Calm - N/A Rain Light Rain
11:15 PM 43.9 °F - 42.4 °F 95% 29.81 in 10.0 mi Calm Calm - N/A Rain Rain
11:20 PM 44.1 °F 42.5 °F 42.1 °F 93% 29.82 in 10.0 mi WNW 3.5 mph - N/A Rain Rain
11:38 PM 43.7 °F 40.3 °F 41.2 °F 91% 29.82 in 10.0 mi NW 5.8 mph - N/A Rain Rain
11:56 PM 43.0 °F 39.5 °F 40.8 °F 92% 29.82 in 10.0 mi WNW 5.8 mph - N/A Rain Rain